Regional Weather Roundup
Issued by NWS Wakefield, VA

Home | Current Version | Previous Version | Graphics & Text | Print | Product List | Glossary On
Versions: 1 2 3 4 5 6 7 8 9 10 11 12 13 14 15 16 17 18 19 20 21 22 23 24 25 26 27 28 29 30 31 32 33 34 35 36 37 38 39 40 41 42 43 44 45 46 47 48 49 50
000
ASUS41 KAKQ 252115
RWRAKQ

REGIONAL WEATHER ROUNDUP
NATIONAL WEATHER SERVICE WAKEFIELD VA
500 PM EDT TUE JUL 25 2017

Note: "fair" indicates few or no clouds below 12,000 feet with no
significant weather and/or obstructions to visibility. * = Denotes
station may not report precipitation (e.g., rain,snow,etc.),
thunder or fog.

VAZ042-051-052>054-056-252200-
NORTHERN VIRGINIA

CITY           SKY/WX    TMP DP  RH WIND       PRES   REMARKS
WASH NATIONAL  PTSUNNY   82  63  52 NW10      30.12S
DULLES         PTSUNNY   76  59  55 NW8       30.14R
FORT BELVOIR   PTSUNNY   81  60  50 N6        30.12R
QUANTICO       PTSUNNY   82  62  50 N7        30.13R
FREDERICKSBRG* CLOUDY    80  62  54 N6        30.11S
STAFFORD*      MOSUNNY   81  59  47 N8        30.17R
WARRENTON      MOSUNNY   80  56  42 N7        30.14R
CULPEPER*      MOSUNNY   80  63  55 N9        30.14S
MANASSAS*      CLOUDY    79  61  53 NW9       30.14R
LEESBURG*      PTSUNNY   81  63  54 NW8G16    30.15R
WINCHESTER     CLOUDY    72  57  60 NW6       30.17S
FRONT ROYAL*   CLOUDY    77  59  53 N8        30.16R
LURAY*         CLEAR     81  59  47 N5        30.14S
$$

VAZ048-049-060>072-079>083-252200-
CENTRAL AND SOUTH CENTRAL VIRGINIA

CITY           SKY/WX    TMP DP  RH WIND       PRES   REMARKS
RICHMOND       MOSUNNY   87  60  40 NW10      30.09S
CHESTERFIELD*  NOT AVBL
PETERSBURG*    CLOUDY    87  57  35 CALM      30.08S
HANOVER        SUNNY     83  59  44 VRB6      30.11S
TAPPAHANNOCK*  MOSUNNY   83  39  20 N5        30.12R
QUINTON*       FAIR      85  60  42 N7        30.09R
CHARLOTTSVILLE SUNNY     85  60  42 E6        30.11S
GORDONSVILLE*  CLEAR     82  61  48 NE7       30.12R
ORANGE*        SUNNY     81  59  47 E10       30.13R
LOUISA*        SUNNY     82  55  39 NE9       30.11S
BUMPASS*       FAIR      82  61  48 NE3       30.12R
FARMVILLE*     PTSUNNY   87  51  28 N5        30.07S
CREWE*         FAIR      87  55  33 NE3       30.08S
FORT PICKETT*  MOCLDY   N/A N/A N/A NE10      30.08S
CHASE CITY*    MOCLDY    89  61  38 CALM      30.07F
CLARKSVILLE*   FAIR      88  61  40 CALM      30.06F
SOUTH HILL*    MOSUNNY   88  65  46 NW3       30.12F
LAWRENCEVILLE* FAIR      88  65  45 MISG      30.06F
EMPORIA*       MOSUNNY   88  64  45 NE5       30.07F
$$

VAZ088>098-252200-
SOUTHEAST VIRGINIA

CITY           SKY/WX    TMP DP  RH WIND       PRES   REMARKS
NORFOLK        CLOUDY    82  66  58 NE12      30.08S
VIRGINIA BEACH PTSUNNY   82  62  50 N10       30.07S
NORFOLK NAVAL  PTSUNNY   82  64  54 NE13      30.10S
WEST POINT*    SUNNY     86  56  36 N9        30.10S
SALUDA*        FAIR      81  65  57 N12       30.09R
NEWPORT NEWS   CLOUDY    82  65  56 E14       30.08R
LANGLEY AFB    MOSUNNY   81  66  60 E16       30.08R
FORT EUSTIS    CLOUDY    92  62  36 E7        30.05S
WILLIAMSBURG*  MOSUNNY   91  63  38 NE3       30.08S
HR EXEC AP*    FAIR      84  66  54 E8        30.04S
FRANKLIN*      PTSUNNY   86  66  51 E3        30.07S
US460-WAKEFLD  NOT AVBL
$$

VAZ020-022-025-037-045-252200-
WEST CENTRAL AND SOUTHWEST VIRGINIA

CITY           SKY/WX    TMP DP  RH WIND       PRES   REMARKS
STAUNTON*      SUNNY     82  57  42 NE6       30.16R
WAYNESBORO*    CLEAR     83  59  44 NE7       30.14S
HOT SPRINGS VA SUNNY     77  32  19 CALM      30.26S
LYNCHBURG      PTSUNNY   88  62  41 VRB5      30.10S
DANVILLE       SUNNY     89  62  40 CALM      30.07F
SOUTH BOSTON*  FAIR      90  61  37 SW3       30.07S
MARTINSVILLE   SUNNY     90  60  36 E3        30.10F
ROANOKE        SUNNY     90  55  30 VRB6      30.12S
BLACKSBURG     SUNNY     84  55  36 NW5       30.20S
DUBLIN*        SUNNY     86  47  25 N7        30.18F
MARION*        SUNNY     80  57  45 W7        30.22F
HILLSVILLE*    SUNNY     82  49  31 CALM      30.19S
RICHLANDS*     FAIR      79  56  45 NW7       30.22F
WISE*          MOSUNNY   81  63  54 NE8       30.23S
ABINGDON*      PTSUNNY   85  64  49 NE6       30.17F
$$

MDZ021>025-VAZ099-100-252200-
SOUTHERN MARYLAND AND THE DELMARVA PENINSULA

CITY           SKY/WX    TMP DP  RH WIND       PRES   REMARKS
PATUXENT RIVER PTSUNNY   81  65  58 N6        30.10S
BAY BRIDGE APT PTSUNNY   79  64  61 N5        30.11S
LEONARDTOWN    MOSUNNY   79  63  57 NW3       30.12S
DOVER          CLOUDY    78  78 100 N7        30.09R
GEORGETOWN     MOSUNNY   81  64  56 NE8       30.11R
EASTON         PTSUNNY   81  63  54 N6        30.14S
CAMBRIDGE      SUNNY     81  63  54 N9        30.09S
SALISBURY      PTSUNNY   81  65  58 N7        30.09S
OCEAN CITY     MOSUNNY   77  67  71 NE10      30.09S
WALLOPS ISLAND MOSUNNY   78  69  73 E10       30.09S
ACCOMACK*      MOSUNNY   81  64  56 NW8       30.09S
$$

NCZ012>017-030>032-252200-
NORTH CENTRAL AND EASTERN NORTH CAROLINA

CITY           SKY/WX    TMP DP  RH WIND       PRES   REMARKS
ROANOKE RAPIDS FAIR      88  70  55 E5        30.06S
RALEIGH        PTSUNNY   91  64  40 N5        30.07S
ELIZABETH CITY CLOUDY    83  69  62 E10       30.07S
AHOSKIE*         N/A     85  70  61 CALM      30.06S
EDENTON*       CLOUDY    84  73  68 E12       30.07S
CURRITUCK*     CLOUDY    82  64  55 NE9       30.09S
KILL DEVIL HLS CLOUDY    80  64  58 NE6       30.07S
MANTEO         CLOUDY    80  66  61 NE13      30.09R
CAPE HATTERAS  MOSUNNY   81  71  71 NE8G17    30.08R
TARBORO*       NOT AVBL
GOLDSBORO      MOSUNNY   94  68  43 N6        30.02F HX  98
WASHINGTON     MOSUNNY   87  74  65 E8        30.05S HX  95
GREENVILLE     MOSUNNY   90  72  55 E7        30.06S HX  96
NEW BERN       PTSUNNY   85  75  72 SE6       30.04S
WILMINGTON     MOSUNNY   86  75  69 SW5       30.03S HX  95
$$

VAZ048-252200-
ELSEWHERE

CITY           SKY/WX    TMP DP  RH WIND       PRES   REMARKS
HARRISBURG PA  CLOUDY    75  59  57 NW7       30.13R
BALTIMORE      PTSUNNY   79  63  57 NW9G20    30.11S
ANNAPOLIS      PTSUNNY   80  67  64 N5        30.11R
ANDREWS AFB    MOSUNNY   78  61  55 NW9       30.11S
PHILADELPHIA   LGT RAIN  75  61  61 VRB5G20   30.11R
HENDERSON NC   PTSUNNY   87  61  41 NE8       30.07F
GREENSBORO     PTSUNNY   88  64  44 NE8       30.08S
ROCKY MOUNT    MOSUNNY   89  73  59 VRB3      30.05S HX  97
$$

VAZ100-252200-
MARINE

STATION/POSITION TIME  TEMP    WIND        PRES    WAVE   SWELL
                       AIR SEA DIR/SP/G            HT/PER HT/PER
                 (UTC) (F)     (DEG/KT/KT) (MB)    (FT/S) (FT/S)
BRANDYWINE LGT   2042   76     340/  6/  6 1019.6S
CAPE MAY NJ      2048   74 76   70/  9/ 12 1018.9R
LEWES DE         2048   75 76   70/  6/  8 1019.2R
15NM E FENWICK I 2050   75 77  360/ 12/ 14 1019.5R   3/ 6   2/ 6
OCEAN-CITY-INLET 2048   76 75   70/  7/ 14 1019.4R
WACHAPREAGUE VA  2048   76 85   70/  8/ 18 1018.9R
THOMAS POINT MD  2100   77 83  360/  4/  4   N/A
GOOSES REEF MD   2100   79 83   40/ 10/ 12 1021.2    1/ 2
COVE POINT MD    2048   77      10/  9/ 12 1020.0R
SOLOMONS ISLAND  2048   78 84  350/  8/ 11   N/A
BISHOPS HEAD MD  2048   80 83  340/  9/ 11 1019.2R
PINEY POINT MD   2048          360/  9/ 10   N/A
CAMBRIDGE MD     2048   82 86              1020.0R
LEWISETTA VA     2048   80 83   10/  7/  9 1019.2R
RAPPAHANNOCK LGT 2048          350/ 16/ 19 1019.8R
STINGRAY PT      2100   80 84   50/ 16/ 17 1019.1    2/ 3
YORK RVR RNG VA  2048   79      60/ 19/ 21 1018.8F
YORKTOWN VA      2048   81 82   30/ 12/ 15 1018.1F
JAMESTOWN VA     2100      87  340/  6/ 12   N/A
DOMINION TERM VA 2048   81      70/  3/  7 1018.7S
KIPTOPEKE VA     2048      77  360/ 12/ 14   N/A
CHES BAY BRIDGE  2048   77 77   30/ 12/ 14 1018.6S
CAPE HENRY VA    2048   77      10/  6/  8   N/A
WILLOUBY STN VA  2048   77      50/ 13/ 14 1018.8S
S CRANEY ISL VA  2048   78      60/ 14/ 16 1018.3F
CAPE HENRY BUOY  2100      72                N/A     2/ 6
1ST LANDING BUOY 2100   78 77              1019.0    2/ 3
64NM E OF VA BCH 2050   76 78  350/ 12/ 14 1019.0R   3/ 5   2/10
DUCK PIER NC     2048   76 76   30/ 12/ 14 1018.3S
44100 DUCK FRF   2005      76                N/A     3/ 7
44056 DUCK FRF   2100      76                N/A     2/ 6
OREGON INLET NC  2042   77 73   30/  7/ 11 1018.6S
HATTERAS NC      2048   79 79   50/ 10/ 16 1018.3R
DIAMOND SHLS NC  2050   80 84   10/ 10/ 12 1018.2R   3/ 6   3/ 6
CAPE LOOKOUT NC  2100   84     230/  6/  9 1017.0F
$$



USA.gov is the U.S. government's official web portal to all federal, state and local government web resources and services.